Location: Cucq
(50.4773°N, 1.6202°E)
Time: 15:46:57
(UTC+00:00)

Cosmos 1680 Rocket - Pass Details

Date: 07 August 2020
Orbit: 760 x 780 km, 74.1° (Epoch: 18 September)

Event Time Altitude Azimuth Distance (km) Brightness Sun altitude
Rises 02:09:25 0° 335° (NNW) 3,249 7.2 -17.4°
Reaches altitude 10° 02:11:48 10° 335° (NNW) 2,315 6.4 -17.1°
Maximum altitude 02:17:04 86° 249° (WSW) 772 3.4 -16.7°
Drops below altitude 10° 02:22:16 10° 160° (SSE) 2,290 5.6 -16.2°
Enters shadow 02:22:51 - 160° (SSE) 2,518 5.9 -16.1°
